Weather History for KJMR - May, 2013

Change the Weather History Date:

Friday, May 24, 2013

  Actual Average Record
Temperature  
Mean Temperature 48 °F -  
Max Temperature 64 °F 71 °F 87 °F (1980)
Min Temperature 32 °F 44 °F 18 °F (1988)
Degree Days  
Heating Degree Days 17    
Moisture  
Dew Point 34 °F    
Average Humidity 59    
Maximum Humidity 100    
Minimum Humidity 30    
Precipitation  
Precipitation 0.04 in - - ()
Sea Level Pressure  
Sea Level Pressure 30.34 in    
Wind  
Wind Speed 3 mph (SE)    
Max Wind Speed 13 mph    
Max Gust Speed 20 mph    
Visibility 10 miles    
Events Rain , Thunderstorm    
Averages and records for this station are not official NWS values.
T = Trace of Precipitation, MM = Missing Value Source: NWS Daily Summary

Daily Weather History Graph

Daily Weather History Graph

Search for Another Location

Airport or City:

Trip Planner

Search our weather history database for the weather conditions in past years. The results will help you decide how hot, cold, wet, or windy it might be!

Date:

Astronomy

May. 24, 2013 Rise Set
Actual Time 5:31 AM CDT 8:48 PM CDT
Civil Twilight 4:55 AM CDT 9:25 PM CDT
Nautical Twilight 4:08 AM CDT 10:12 PM CDT
Astronomical Twilight 3:09 AM CDT 11:12 PM CDT
Moon 8:29 PM CDT (5/24) 5:07 AM CDT (5/24)
Length of Visible Light 16h 29m
Length of Day
15h 16m
Full, 100% of the Moon is Illuminated
May 24
Full
May 24
Full
May 31
Last Quarter
Jun 8
New
Jun 16
First Quarter

Hourly Weather History & Observations

Time (CDT) Temp. Windchill Dew Point Humidity Pressure Visibility Wind Dir Wind Speed Gust Speed Precip Events Conditions
12:11 AM 37.4 °F - 33.8 °F 87% 30.37 in 10.0 mi Calm Calm - N/A   Clear
12:31 AM 37.4 °F 34.9 °F 33.8 °F 87% 30.37 in 10.0 mi East 3.5 mph - N/A   Clear
12:51 AM 37.4 °F - 32.0 °F 81% 30.37 in 10.0 mi Calm Calm - N/A   Clear
1:11 AM 37.4 °F - 32.0 °F 81% 30.37 in 10.0 mi Calm Calm - N/A   Clear
1:31 AM 35.6 °F - 30.2 °F 81% 30.37 in 10.0 mi Calm Calm - N/A   Clear
1:51 AM 35.6 °F - 32.0 °F 87% 30.37 in 10.0 mi Calm Calm - N/A   Clear
2:11 AM 35.6 °F - 32.0 °F 87% 30.37 in 10.0 mi Calm Calm - N/A   Clear
2:31 AM 35.6 °F - 32.0 °F 87% 30.37 in 10.0 mi Calm Calm - N/A   Clear
2:51 AM 33.8 °F - 30.2 °F 87% 30.38 in 10.0 mi Calm Calm - N/A   Clear
3:11 AM 33.8 °F - 32.0 °F 93% 30.38 in 10.0 mi Calm Calm - N/A   Clear
3:31 AM 33.8 °F - 32.0 °F 93% 30.38 in 10.0 mi Calm Calm - N/A   Clear
3:51 AM 33.8 °F - 32.0 °F 93% 30.37 in 10.0 mi Calm Calm - N/A   Clear
4:11 AM 32.0 °F - 32.0 °F 100% 30.37 in 10.0 mi Calm Calm - N/A   Clear
4:31 AM 32.0 °F - 30.2 °F 93% 30.38 in 10.0 mi Calm Calm - N/A   Clear
4:51 AM 32.0 °F - 30.2 °F 93% 30.39 in 10.0 mi Calm Calm - N/A   Clear
5:11 AM 32.0 °F - 30.2 °F 93% 30.39 in 10.0 mi Calm Calm - N/A   Clear
5:31 AM 32.0 °F - 30.2 °F 93% 30.39 in 10.0 mi Calm Calm - N/A   Clear
5:51 AM 32.0 °F - 30.2 °F 93% 30.39 in 10.0 mi Calm Calm - N/A   Clear
6:11 AM 32.0 °F - 30.2 °F 93% 30.40 in 10.0 mi Calm Calm - N/A   Clear
6:31 AM 33.8 °F - 32.0 °F 93% 30.40 in 10.0 mi Calm Calm - N/A   Clear
6:51 AM 35.6 °F - 33.8 °F 93% 30.41 in 10.0 mi Calm Calm - N/A   Clear
7:11 AM 37.4 °F - 35.6 °F 93% 30.41 in 10.0 mi Calm Calm - N/A   Clear
7:31 AM 41.0 °F 39.0 °F 35.6 °F 81% 30.42 in 10.0 mi SE 3.5 mph - N/A   Clear
7:51 AM 44.6 °F 42.2 °F 35.6 °F 71% 30.41 in 10.0 mi ESE 4.6 mph - N/A   Clear
8:11 AM 46.4 °F 42.4 °F 32.0 °F 57% 30.42 in 10.0 mi SE 8.1 mph - N/A   Clear
8:31 AM 48.2 °F - 32.0 °F 54% 30.41 in 10.0 mi SSE 5.8 mph - N/A   Clear
8:51 AM 50.0 °F - 32.0 °F 50% 30.41 in 10.0 mi ESE 5.8 mph - N/A   Clear
9:11 AM 51.8 °F - 32.0 °F 47% 30.41 in 10.0 mi SSE 5.8 mph - N/A   Clear
9:31 AM 53.6 °F - 32.0 °F 44% 30.40 in 10.0 mi SSE 5.8 mph - N/A   Clear
9:51 AM 53.6 °F - 32.0 °F 44% 30.40 in 10.0 mi South 10.4 mph 17.3 mph N/A   Clear
10:11 AM 55.4 °F - 32.0 °F 41% 30.40 in 10.0 mi SSE 9.2 mph - N/A   Clear
10:31 AM 55.4 °F - 32.0 °F 41% 30.39 in 10.0 mi SE 6.9 mph 16.1 mph N/A   Clear
10:51 AM 55.4 °F - 32.0 °F 41% 30.38 in 10.0 mi SSE 8.1 mph - N/A   Clear
11:11 AM 55.4 °F - 32.0 °F 41% 30.38 in 10.0 mi SE 8.1 mph - N/A   Clear
11:31 AM 57.2 °F - 32.0 °F 38% 30.37 in 10.0 mi SE 10.4 mph 16.1 mph N/A   Clear
11:51 AM 59.0 °F - 32.0 °F 36% 30.37 in 10.0 mi SE 10.4 mph - N/A   Clear
12:11 PM 59.0 °F - 30.2 °F 34% 30.37 in 10.0 mi SE 11.5 mph 17.3 mph N/A   Clear
12:31 PM 59.0 °F - 32.0 °F 36% 30.36 in 10.0 mi SE 9.2 mph - N/A   Clear
12:51 PM 60.8 °F - 32.0 °F 34% 30.35 in 10.0 mi ESE 9.2 mph 17.3 mph N/A   Clear
1:11 PM 60.8 °F - 32.0 °F 34% 30.34 in 10.0 mi ESE 10.4 mph - N/A   Clear
1:31 PM 62.6 °F - 32.0 °F 32% 30.33 in 10.0 mi South 6.9 mph - N/A   Clear
1:51 PM 62.6 °F - 32.0 °F 32% 30.31 in 10.0 mi SE 9.2 mph 16.1 mph N/A   Clear
2:11 PM 62.6 °F - 32.0 °F 32% 30.31 in 10.0 mi ESE 12.7 mph - N/A   Clear
2:31 PM 64.4 °F - 33.8 °F 32% 30.30 in 10.0 mi SSE 9.2 mph 17.3 mph N/A   Clear
2:51 PM 64.4 °F - 33.8 °F 32% 30.28 in 10.0 mi SSE 9.2 mph - N/A   Clear
3:11 PM 62.6 °F - 32.0 °F 32% 30.27 in 10.0 mi SSE 8.1 mph 16.1 mph N/A   Clear
3:31 PM 64.4 °F - 33.8 °F 32% 30.27 in 10.0 mi SE 8.1 mph 19.6 mph N/A   Clear
3:51 PM 62.6 °F - 32.0 °F 32% 30.27 in 10.0 mi SSE 6.9 mph - N/A   Clear
4:11 PM 64.4 °F - 32.0 °F 30% 30.28 in 10.0 mi SSE 8.1 mph - N/A   Clear
4:31 PM 62.6 °F - 32.0 °F 32% 30.28 in 10.0 mi SSE 4.6 mph - N/A   Clear
4:51 PM 62.6 °F - 32.0 °F 32% 30.29 in 10.0 mi South 5.8 mph - N/A   Clear
5:11 PM 62.6 °F - 32.0 °F 32% 30.30 in 10.0 mi SW 5.8 mph - N/A   Clear
5:31 PM 62.6 °F - 33.8 °F 34% 30.30 in 10.0 mi SSW 4.6 mph - N/A   Clear
5:51 PM 62.6 °F - 35.6 °F 37% 30.28 in 10.0 mi South 6.9 mph - N/A   Clear
6:11 PM 62.6 °F - 33.8 °F 34% 30.28 in 10.0 mi South 6.9 mph - N/A   Clear
6:31 PM 62.6 °F - 35.6 °F 37% 30.27 in 10.0 mi South 5.8 mph - N/A   Clear
6:51 PM 60.8 °F - 33.8 °F 36% 30.26 in 10.0 mi SSE 3.5 mph - N/A Thunderstorm Clear
7:11 PM 59.0 °F - 35.6 °F 42% 30.24 in 10.0 mi ESE 4.6 mph - N/A   Clear
7:31 PM 59.0 °F - 35.6 °F 42% 30.23 in 10.0 mi ESE 8.1 mph - N/A   Clear
7:51 PM 59.0 °F - 35.6 °F 42% 30.24 in 10.0 mi East 4.6 mph - N/A   Scattered Clouds
8:11 PM 59.0 °F - 35.6 °F 42% 30.25 in 10.0 mi Calm Calm - N/A   Overcast
8:31 PM 55.4 °F - 37.4 °F 51% 30.24 in 10.0 mi Calm Calm - N/A   Overcast
8:51 PM 55.4 °F - 37.4 °F 51% 30.25 in 10.0 mi Calm Calm - N/A   Overcast
9:11 PM 55.4 °F - 39.2 °F 54% 30.25 in 10.0 mi Calm Calm - N/A   Overcast
9:31 PM 55.4 °F - 39.2 °F 54% 30.26 in 10.0 mi Calm Calm - N/A   Overcast
9:51 PM 55.4 °F - 42.8 °F 63% 30.27 in 10.0 mi Calm Calm - N/A   Overcast
10:11 PM 55.4 °F - 41.0 °F 58% 30.27 in 10.0 mi Calm Calm - N/A   Overcast
10:29 PM 55.4 °F - 42.8 °F 63% 30.27 in 7.0 mi Calm Calm - N/A Rain Light Rain
10:51 PM 55.4 °F - 42.8 °F 63% 30.26 in 10.0 mi Calm Calm - N/A Rain Light Rain
11:11 PM 53.6 °F - 42.8 °F 67% 30.27 in 10.0 mi Calm Calm - 0.01 in Rain Light Rain
11:31 PM 51.8 °F - 44.6 °F 76% 30.28 in 7.0 mi Calm Calm - 0.03 in Rain Light Rain
11:51 PM 50.0 °F - 44.6 °F 82% 30.28 in 10.0 mi South 3.5 mph - 0.04 in Rain Light Rain